ONEWEB-0370 (49296 NORAD) Tracking and Keplerian Element Data

This shows tracking and keplerian element data for the satellite.

Feedback or suggestion? Click here.




ElementValue
Catalog49296
NameONEWEB-0370
Epoch Orbit358
Epoch Day339.91667824
Epoch Year2021
RAAN274.986
Inclination87.2032
Eccentricity0.0013129
Argument of Perigee87.2946
Mean Anonmoly247.7738
Mean Motion14.91016338
Decay Rate-0.00051959
L11 49296U 21090T 21339.91667824 -.00051959 00000+0 -52960-2 0 9997
L22 49296 87.2032 274.9860 0013129 87.2946 247.7738 14.91016338 3582

Live tracking and technical data element details for ONEWEB-0370 (NORAD 49296). ONEWEB-0370 can be tracked NOW for your location showing map with azimuth and elevation plus other details from your city location.

Track the satellite on the map from your city or location and see movement details for azimuth, elevation, latitude, longitude, range, height, and movement on the map or in text.







IsCatalogInMostPopularTable: catalog: 49296, numindb: 7
Update: records affected: 1



GetName: 49296 ONEWEB-0370

Hit Count: updated at: Mon, 06 Dec 2021 14:02:54 GMT